START_TIME,STEP,MOV.,EG07,t_acc.,EG08,t_acc.,EG09,t_acc.,EB05,t_acc.,EBP05,t_acc.
1979-03-09 06:00:20.890 ,5,0,0.,1.2,0.,1.2,0.,1.2,,0.0,,0.0
1979-03-09 06:00:22.090 ,5,0,0.,1.2,0.,1.2,0.,1.2,,0.0,,0.0
1979-03-09 06:00:23.290 ,5,0,0.,1.2,0.,1.2,0.,1.2,,0.0,,0.0
1979-03-09 06:00:24.490 ,5,0,0.,1.2,0.,1.2,0.,1.2,,0.0,,0.0
1979-03-09 06:00:25.690 ,5,0,0.,1.2,0.,1.2,0.,1.2,,0.0,,0.0
1979-03-09 06:00:26.890 ,5,0,0.,1.2,0.,1.2,0.,1.2,,0.0,,0.0
1979-03-09 06:00:28.090 ,5,0,0.,1.2,0.,1.2,0.,1.2,,0.0,,0.0
1979-03-09 06:00:29.290 ,5,0,0.,1.2,0.,1.2,0.,1.2,,0.0,,0.0
1979-03-09 06:00:30.490 ,5,0,0.,1.2,0.,1.2,0.,1.2,,0.0,,0.0
1979-03-09 06:00:31.690 ,5,0,0.,1.2,0.,1.2,0.,1.2,,0.0,,0.0
1979-03-09 06:00:32.890 ,5,0,0.,1.2,0.,1.2,0.,1.2,,0.0,,0.0
1979-03-09 06:00:34.090 ,5,0,0.,1.2,0.,1.2,0.,1.2,,0.0,,0.0
1979-03-09 06:00:35.290 ,5,0,0.,1.2,0.,1.2,0.,1.2,,0.0,,0.0
1979-03-09 06:00:36.490 ,5,0,0.,1.2,0.,1.2,0.,1.2,,0.0,,0.0
1979-03-09 06:00:37.690 ,5,0,0.,1.2,0.,1.2,0.,1.2,,0.0,,0.0
1979-03-09 06:00:38.890 ,5,0,0.,1.2,0.,1.2,0.,1.2,,0.0,,0.0
1979-03-09 06:00:40.090 ,5,0,0.,1.2,0.,1.2,0.,1.2,,0.0,,0.0
1979-03-09 06:00:41.290 ,5,0,0.,1.2,0.,1.2,0.,1.2,,0.0,,0.0
1979-03-09 06:00:42.490 ,5,0,0.,1.2,0.,1.2,0.,1.2,,0.0,,0.0
1979-03-09 06:00:43.690 ,5,0,0.,1.2,0.,1.2,0.,1.2,,0.0,,0.0
1979-03-09 06:00:44.890 ,4,0,0.,1.2,0.,1.2,0.,1.2,,0.0,,0.0
1979-03-09 06:00:46.090 ,4,0,0.,1.2,0.,1.2,0.,1.2,,0.0,,0.0
1979-03-09 06:00:47.290 ,4,0,0.,1.2,0.,1.2,0.,1.2,,0.0,,0.0
1979-03-09 06:00:48.490 ,4,0,0.,1.2,0.,1.2,0.,1.2,,0.0,,0.0
1979-03-09 06:00:49.690 ,4,0,0.,1.2,0.,1.2,0.,1.2,,0.0,,0.0
1979-03-09 06:00:50.890 ,4,0,0.,1.2,0.,1.2,0.,1.2,,0.0,,0.0
1979-03-09 06:00:52.090 ,4,0,0.,1.2,0.,1.2,0.,1.2,,0.0,,0.0
1979-03-09 06:00:53.290 ,4,0,0.,1.2,0.,1.2,0.,1.2,,0.0,,0.0
1979-03-09 06:00:54.490 ,4,0,0.,1.2,0.,1.2,0.,1.2,,0.0,,0.0
1979-03-09 06:00:55.690 ,4,0,0.,1.2,0.,1.2,0.,1.2,,0.0,,0.0
1979-03-09 06:00:56.890 ,4,0,0.,1.2,0.,1.2,0.,1.2,,0.0,,0.0
1979-03-09 06:00:58.090 ,4,0,0.,1.2,0.,1.2,0.,1.2,,0.0,,0.0
1979-03-09 06:00:59.290 ,4,0,0.,1.2,0.,1.2,0.,1.2,,0.0,,0.0
1979-03-09 06:01:00.490 ,4,0,0.,1.2,0.,1.2,0.,1.2,,0.0,,0.0
1979-03-09 06:01:01.690 ,4,0,0.,1.2,0.,1.2,0.,1.2,,0.0,,0.0
1979-03-09 06:01:02.890 ,4,0,0.,1.2,0.,1.2,0.,1.2,,0.0,,0.0
1979-03-09 06:01:04.090 ,4,0,0.,1.2,0.,1.2,0.,1.2,,0.0,,0.0
1979-03-09 06:01:05.290 ,4,0,0.,1.2,0.,1.2,0.,1.2,,0.0,,0.0
1979-03-09 06:01:06.490 ,4,0,0.,1.2,0.,1.2,0.,1.2,,0.0,,0.0
1979-03-09 06:01:07.690 ,4,0,0.,1.2,0.,1.2,0.,1.2,,0.0,,0.0
1979-03-09 06:01:08.890 ,3,0,0.,1.2,0.,1.2,0.,1.2,,0.0,,0.0
1979-03-09 06:01:10.090 ,3,0,0.,1.2,0.,1.2,0.,1.2,,0.0,,0.0
1979-03-09 06:01:11.290 ,3,0,0.,1.2,0.,1.2,0.,1.2,,0.0,,0.0
1979-03-09 06:01:12.490 ,3,0,0.,1.2,0.,1.2,0.,1.2,,0.0,,0.0
1979-03-09 06:01:13.690 ,3,0,0.,1.2,0.,1.2,0.,1.2,,0.0,,0.0
1979-03-09 06:01:14.890 ,3,0,0.,1.2,0.,1.2,0.,1.2,,0.0,,0.0
1979-03-09 06:01:16.090 ,3,0,0.,1.2,0.,1.2,0.,1.2,,0.0,,0.0
1979-03-09 06:01:17.290 ,3,0,0.,1.2,0.,1.2,0.,1.2,,0.0,,0.0
1979-03-09 06:01:18.490 ,3,0,0.,1.2,0.,1.2,0.,1.2,,0.0,,0.0
1979-03-09 06:01:19.690 ,3,0,0.,1.2,0.,1.2,0.,1.2,,0.0,,0.0
1979-03-09 06:01:20.890 ,3,0,0.,1.2,0.,1.2,0.,1.2,,0.0,,0.0
1979-03-09 06:01:22.090 ,3,0,0.,1.2,0.,1.2,0.,1.2,,0.0,,0.0
1979-03-09 06:01:23.290 ,3,0,0.,1.2,0.,1.2,0.,1.2,,0.0,,0.0
1979-03-09 06:01:24.490 ,3,0,0.,1.2,0.,1.2,0.,1.2,,0.0,,0.0
1979-03-09 06:01:25.690 ,3,0,0.,1.2,0.,1.2,0.,1.2,,0.0,,0.0
1979-03-09 06:01:26.890 ,3,0,0.,1.2,0.,1.2,0.,1.2,,0.0,,0.0
1979-03-09 06:01:28.090 ,3,0,0.,1.2,0.,1.2,0.,1.2,,0.0,,0.0
1979-03-09 06:01:29.290 ,3,0,0.,1.2,0.,1.2,0.,1.2,,0.0,,0.0
1979-03-09 06:01:30.490 ,3,0,0.,1.2,0.,1.2,0.,1.2,,0.0,,0.0
1979-03-09 06:01:31.690 ,3,0,0.,1.2,0.,1.2,0.,1.2,,0.0,,0.0
1979-03-09 06:01:32.890 ,2,0,0.,1.2,0.,1.2,0.,1.2,,0.0,,0.0
1979-03-09 06:01:34.090 ,2,0,0.,1.2,0.,1.2,0.,1.2,,0.0,,0.0
1979-03-09 06:01:35.290 ,2,0,0.,1.2,0.,1.2,0.,1.2,,0.0,,0.0
1979-03-09 06:01:36.490 ,2,0,0.,1.2,0.,1.2,0.,1.2,,0.0,,0.0
1979-03-09 06:01:37.690 ,2,0,0.,1.2,0.,1.2,0.,1.2,,0.0,,0.0
1979-03-09 06:01:38.890 ,2,0,0.,1.2,0.,1.2,0.,1.2,,0.0,,0.0
1979-03-09 06:01:40.090 ,2,0,0.,1.2,0.,1.2,0.,1.2,,0.0,,0.0
1979-03-09 06:01:41.290 ,2,0,0.,1.2,0.,1.2,0.,1.2,,0.0,,0.0
1979-03-09 06:01:42.490 ,2,0,0.,1.2,0.,1.2,0.,1.2,,0.0,,0.0
1979-03-09 06:01:43.690 ,2,0,0.,1.2,0.,1.2,0.,1.2,,0.0,,0.0
1979-03-09 06:01:44.890 ,2,0,0.,1.2,0.,1.2,0.,1.2,,0.0,,0.0
1979-03-09 06:01:46.090 ,2,0,0.,1.2,0.,1.2,0.,1.2,,0.0,,0.0
1979-03-09 06:01:47.290 ,2,0,0.,1.2,0.,1.2,0.,1.2,,0.0,,0.0
1979-03-09 06:01:48.490 ,2,0,0.,1.2,0.,1.2,0.,1.2,,0.0,,0.0
1979-03-09 06:01:49.690 ,2,0,0.,1.2,0.,1.2,0.,1.2,,0.0,,0.0
1979-03-09 06:01:50.890 ,2,0,0.,1.2,0.,1.2,0.,1.2,,0.0,,0.0
1979-03-09 06:01:52.090 ,2,0,0.,1.2,0.,1.2,0.,1.2,,0.0,,0.0
1979-03-09 06:01:53.290 ,2,0,0.,1.2,0.,1.2,0.,1.2,,0.0,,0.0
1979-03-09 06:01:54.490 ,2,0,0.,1.2,0.,1.2,0.,1.2,,0.0,,0.0
1979-03-09 06:01:55.690 ,2,0,0.,1.2,0.,1.2,0.,1.2,,0.0,,0.0
1979-03-09 06:01:56.890 ,1,0,0.,1.2,0.,1.2,0.,1.2,,0.0,,0.0
1979-03-09 06:01:58.090 ,1,0,0.,1.2,0.,1.2,0.,1.2,,0.0,,0.0
1979-03-09 06:01:59.290 ,1,0,0.,1.2,0.,1.2,0.,1.2,,0.0,,0.0
1979-03-09 06:02:00.490 ,1,0,0.,1.2,0.,1.2,0.,1.2,,0.0,,0.0
1979-03-09 06:02:01.690 ,1,0,0.,1.2,0.,1.2,0.,1.2,,0.0,,0.0
1979-03-09 06:02:02.890 ,1,0,0.,1.2,0.,1.2,0.,1.2,,0.0,,0.0
1979-03-09 06:02:04.090 ,1,0,0.,1.2,0.,1.2,0.,1.2,,0.0,,0.0
1979-03-09 06:02:05.290 ,1,0,0.,1.2,0.,1.2,0.,1.2,,0.0,,0.0
1979-03-09 06:02:06.490 ,1,0,0.,1.2,0.,1.2,0.,1.2,,0.0,,0.0
1979-03-09 06:02:07.690 ,1,0,0.,1.2,0.,1.2,0.,1.2,,0.0,,0.0
1979-03-09 06:02:08.890 ,1,0,0.,1.2,0.,1.2,0.,1.2,,0.0,,0.0
1979-03-09 06:02:10.090 ,1,0,0.,1.2,0.,1.2,0.,1.2,,0.0,,0.0
1979-03-09 06:02:11.290 ,1,0,0.,1.2,0.,1.2,0.,1.2,,0.0,,0.0
1979-03-09 06:02:12.490 ,1,0,0.,1.2,0.,1.2,0.,1.2,,0.0,,0.0
1979-03-09 06:02:13.690 ,1,0,0.,1.2,0.,1.2,0.,1.2,,0.0,,0.0
1979-03-09 06:02:14.890 ,1,0,0.,1.2,0.,1.2,0.,1.2,,0.0,,0.0
1979-03-09 06:02:16.090 ,1,0,0.,1.2,0.,1.2,0.,1.2,,0.0,,0.0
1979-03-09 06:02:17.290 ,1,0,0.,1.2,0.,1.2,0.,1.2,,0.0,,0.0
1979-03-09 06:02:18.490 ,1,0,0.,1.2,0.,1.2,0.,1.2,,0.0,,0.0
1979-03-09 06:02:19.690 ,1,0,0.,1.2,0.,1.2,0.,1.2,,0.0,,0.0
1979-03-09 06:02:20.890 ,0,0,0.,1.2,0.,1.2,0.,1.2,,0.0,,0.0
1979-03-09 06:02:22.090 ,0,0,0.,1.2,0.,1.2,0.,1.2,,0.0,,0.0
1979-03-09 06:02:23.290 ,0,0,0.,1.2,0.,1.2,0.,1.2,,0.0,,0.0
1979-03-09 06:02:24.490 ,0,0,0.,1.2,0.,1.2,0.,1.2,,0.0,,0.0
1979-03-09 06:02:25.690 ,0,0,0.,1.2,0.,1.2,0.,1.2,,0.0,,0.0
1979-03-09 06:02:26.890 ,0,0,0.,1.2,0.,1.2,0.,1.2,,0.0,,0.0
1979-03-09 06:02:28.090 ,0,0,0.,1.2,0.,1.2,0.,1.2,,0.0,,0.0
1979-03-09 06:02:29.290 ,0,0,0.,1.2,0.,1.2,0.,1.2,,0.0,,0.0
1979-03-09 06:02:30.490 ,0,0,0.,1.2,0.,1.2,0.,1.2,,0.0,,0.0
1979-03-09 06:02:31.690 ,0,0,0.,1.2,0.,1.2,0.,1.2,,0.0,,0.0
1979-03-09 06:02:32.890 ,0,0,0.,1.2,0.,1.2,0.,1.2,,0.0,,0.0
1979-03-09 06:02:34.090 ,0,0,0.,1.2,0.,1.2,0.,1.2,,0.0,,0.0
1979-03-09 06:02:35.290 ,0,0,0.,1.2,0.,1.2,0.,1.2,,0.0,,0.0
1979-03-09 06:02:36.490 ,0,0,0.,1.2,0.,1.2,0.,1.2,,0.0,,0.0
1979-03-09 06:02:37.690 ,0,0,0.,1.2,0.,1.2,0.,1.2,,0.0,,0.0
1979-03-09 06:02:38.890 ,0,0,0.,1.2,0.,1.2,0.,1.2,,0.0,,0.0
1979-03-09 06:02:40.090 ,0,0,0.,1.2,0.,1.2,0.,1.2,,0.0,,0.0
1979-03-09 06:02:41.290 ,0,0,0.,1.2,0.,1.2,0.,1.2,,0.0,,0.0
1979-03-09 06:02:42.490 ,0,0,0.,1.2,0.,1.2,0.,1.2,,0.0,,0.0
1979-03-09 06:02:43.690 ,0,0,0.,1.2,0.,1.2,0.,1.2,,0.0,,0.0
1979-03-09 06:02:44.890 ,0,0,0.,1.2,0.,1.2,0.,1.2,,0.0,,0.0
1979-03-09 06:02:46.090 ,0,0,0.,1.2,0.,1.2,0.,1.2,,0.0,,0.0
1979-03-09 06:02:47.290 ,0,0,0.,1.2,0.,1.2,0.,1.2,,0.0,,0.0
1979-03-09 06:02:48.490 ,0,0,0.,1.2,0.,1.2,0.,1.2,,0.0,,0.0
1979-03-09 06:02:49.690 ,0,0,0.,1.2,0.,1.2,0.,1.2,,0.0,,0.0
1979-03-09 06:02:50.890 ,0,0,0.,1.2,0.,1.2,0.,1.2,,0.0,,0.0
1979-03-09 06:02:52.090 ,0,0,0.,1.2,0.,1.2,0.,1.2,,0.0,,0.0
1979-03-09 06:02:53.290 ,0,0,0.,1.2,0.,1.2,0.,1.2,,0.0,,0.0
1979-03-09 06:02:54.490 ,0,0,0.,1.2,0.,1.2,0.,1.2,,0.0,,0.0
1979-03-09 06:02:55.690 ,0,0,0.,1.2,0.,1.2,0.,1.2,,0.0,,0.0
1979-03-09 06:02:56.890 ,0,0,0.,1.2,0.,1.2,0.,1.2,,0.0,,0.0
1979-03-09 06:02:58.090 ,0,0,0.,1.2,0.,1.2,0.,1.2,,0.0,,0.0
1979-03-09 06:02:59.290 ,0,0,0.,1.2,0.,1.2,0.,1.2,,0.0,,0.0
1979-03-09 06:03:00.490 ,0,0,0.,1.2,0.,1.2,0.,1.2,,0.0,,0.0
1979-03-09 06:03:01.690 ,0,0,0.,1.2,0.,1.2,0.,1.2,,0.0,,0.0
1979-03-09 06:03:02.890 ,0,0,0.,1.2,0.,1.2,0.,1.2,,0.0,,0.0
1979-03-09 06:03:04.090 ,0,0,0.,1.2,0.,1.2,0.,1.2,,0.0,,0.0
1979-03-09 06:03:05.290 ,0,0,0.,1.2,0.,1.2,0.,1.2,,0.0,,0.0
1979-03-09 06:03:06.490 ,0,0,0.,1.2,0.,1.2,0.,1.2,,0.0,,0.0
1979-03-09 06:03:07.690 ,0,0,0.,1.2,0.,1.2,0.,1.2,,0.0,,0.0
1979-03-09 06:03:08.890 ,1,0,0.,1.2,0.,1.2,0.,1.2,,0.0,,0.0
1979-03-09 06:03:10.090 ,1,0,0.,1.2,0.,1.2,0.,1.2,,0.0,,0.0
1979-03-09 06:03:11.290 ,1,0,0.,1.2,0.,1.2,0.,1.2,,0.0,,0.0
1979-03-09 06:03:12.490 ,1,0,0.,1.2,0.,1.2,0.,1.2,,0.0,,0.0
1979-03-09 06:03:13.690 ,1,0,0.,1.2,0.,1.2,0.,1.2,,0.0,,0.0
1979-03-09 06:03:14.890 ,1,0,0.,1.2,0.,1.2,0.,1.2,,0.0,,0.0
1979-03-09 06:03:16.090 ,1,0,0.,1.2,0.,1.2,0.,1.2,,0.0,,0.0
1979-03-09 06:03:17.290 ,1,0,0.,1.2,0.,1.2,0.,1.2,,0.0,,0.0
1979-03-09 06:03:18.490 ,1,0,0.,1.2,0.,1.2,0.,1.2,,0.0,,0.0
1979-03-09 06:03:19.690 ,1,0,0.,1.2,0.,1.2,0.,1.2,,0.0,,0.0
1979-03-09 06:03:20.890 ,1,0,0.,1.2,0.,1.2,0.,1.2,,0.0,,0.0
1979-03-09 06:03:22.090 ,1,0,0.,1.2,0.,1.2,0.,1.2,,0.0,,0.0
1979-03-09 06:03:23.290 ,1,0,0.,1.2,0.,1.2,0.,1.2,,0.0,,0.0
1979-03-09 06:03:24.490 ,1,0,0.,1.2,0.,1.2,0.,1.2,,0.0,,0.0
1979-03-09 06:03:25.690 ,1,0,0.,1.2,0.,1.2,0.,1.2,,0.0,,0.0
1979-03-09 06:03:26.890 ,1,0,0.,1.2,0.,1.2,0.,1.2,,0.0,,0.0
1979-03-09 06:03:28.090 ,1,0,0.,1.2,0.,1.2,0.,1.2,,0.0,,0.0
1979-03-09 06:03:29.290 ,1,0,0.,1.2,0.,1.2,0.,1.2,,0.0,,0.0
1979-03-09 06:03:30.490 ,1,0,0.,1.2,0.,1.2,0.,1.2,,0.0,,0.0
1979-03-09 06:03:31.690 ,1,0,0.,1.2,0.,1.2,0.,1.2,,0.0,,0.0
1979-03-09 06:03:32.890 ,2,0,0.,1.2,0.,1.2,0.,1.2,,0.0,,0.0
1979-03-09 06:03:34.090 ,2,0,0.,1.2,0.,1.2,0.,1.2,,0.0,,0.0
1979-03-09 06:03:35.290 ,2,0,0.,1.2,0.,1.2,0.,1.2,,0.0,,0.0
1979-03-09 06:03:36.490 ,2,0,0.,1.2,0.,1.2,0.,1.2,,0.0,,0.0
1979-03-09 06:03:37.690 ,2,0,0.,1.2,0.,1.2,0.,1.2,,0.0,,0.0
1979-03-09 06:03:38.890 ,2,0,0.,1.2,0.,1.2,0.,1.2,,0.0,,0.0
1979-03-09 06:03:40.090 ,2,0,0.,1.2,0.,1.2,0.,1.2,,0.0,,0.0
1979-03-09 06:03:41.290 ,2,0,0.,1.2,0.,1.2,0.,1.2,,0.0,,0.0
1979-03-09 06:03:42.490 ,2,0,0.,1.2,0.,1.2,0.,1.2,,0.0,,0.0
1979-03-09 06:03:43.690 ,2,0,0.,1.2,0.,1.2,0.,1.2,,0.0,,0.0
1979-03-09 06:03:44.890 ,2,0,0.,1.2,0.,1.2,0.,1.2,,0.0,,0.0
1979-03-09 06:03:46.090 ,2,0,0.,1.2,0.,1.2,0.,1.2,,0.0,,0.0
1979-03-09 06:03:47.290 ,2,0,0.,1.2,0.,1.2,0.,1.2,,0.0,,0.0
1979-03-09 06:03:48.490 ,2,0,0.,1.2,0.,1.2,0.,1.2,,0.0,,0.0
1979-03-09 06:03:49.690 ,2,0,0.,1.2,0.,1.2,0.,1.2,,0.0,,0.0
1979-03-09 06:03:50.890 ,2,0,0.,1.2,0.,1.2,0.,1.2,,0.0,,0.0
1979-03-09 06:03:52.090 ,2,0,0.,1.2,0.,1.2,0.,1.2,,0.0,,0.0
1979-03-09 06:03:53.290 ,2,0,0.,1.2,0.,1.2,0.,1.2,,0.0,,0.0
1979-03-09 06:03:54.490 ,2,0,0.,1.2,0.,1.2,0.,1.2,,0.0,,0.0
1979-03-09 06:03:55.690 ,2,0,0.,1.2,0.,1.2,0.,1.2,,0.0,,0.0
1979-03-09 06:03:56.890 ,3,0,0.,1.2,0.,1.2,0.,1.2,,0.0,,0.0
1979-03-09 06:03:58.090 ,3,0,0.,1.2,0.,1.2,0.,1.2,,0.0,,0.0
1979-03-09 06:03:59.290 ,3,0,0.,1.2,0.,1.2,0.,1.2,,0.0,,0.0
1979-03-09 06:04:00.490 ,3,0,0.,1.2,0.,1.2,0.,1.2,,0.0,,0.0
1979-03-09 06:04:01.690 ,3,0,0.,1.2,0.,1.2,0.,1.2,,0.0,,0.0
1979-03-09 06:04:02.890 ,3,0,0.,1.2,0.,1.2,0.,1.2,,0.0,,0.0
1979-03-09 06:04:04.090 ,3,0,0.,1.2,0.,1.2,0.,1.2,,0.0,,0.0
1979-03-09 06:04:05.290 ,3,0,0.,1.2,0.,1.2,0.,1.2,,0.0,,0.0
1979-03-09 06:04:06.490 ,3,0,0.,1.2,0.,1.2,0.,1.2,,0.0,,0.0
1979-03-09 06:04:07.690 ,3,0,0.,1.2,0.,1.2,0.,1.2,,0.0,,0.0
1979-03-09 06:04:08.890 ,3,0,0.,1.2,0.,1.2,0.,1.2,,0.0,,0.0
1979-03-09 06:04:10.090 ,3,0,0.,1.2,0.,1.2,0.,1.2,,0.0,,0.0
1979-03-09 06:04:11.290 ,3,0,0.,1.2,0.,1.2,0.,1.2,,0.0,,0.0
1979-03-09 06:04:12.490 ,3,0,0.,1.2,0.,1.2,0.,1.2,,0.0,,0.0
1979-03-09 06:04:13.690 ,3,0,0.,1.2,0.,1.2,0.,1.2,,0.0,,0.0
1979-03-09 06:04:14.890 ,3,0,0.,1.2,0.,1.2,0.,1.2,,0.0,,0.0
1979-03-09 06:04:16.090 ,3,0,0.,1.2,0.,1.2,0.,1.2,,0.0,,0.0
1979-03-09 06:04:17.290 ,3,0,0.,1.2,0.,1.2,0.,1.2,,0.0,,0.0
1979-03-09 06:04:18.490 ,3,0,0.,1.2,0.,1.2,0.,1.2,,0.0,,0.0
1979-03-09 06:04:19.690 ,3,0,0.,1.2,0.,1.2,0.,1.2,,0.0,,0.0
1979-03-09 06:04:20.890 ,4,0,0.,1.2,0.,1.2,0.,1.2,,0.0,,0.0
1979-03-09 06:04:22.090 ,4,0,0.,1.2,0.,1.2,0.,1.2,,0.0,,0.0
1979-03-09 06:04:23.290 ,4,0,0.,1.2,0.,1.2,0.,1.2,,0.0,,0.0
1979-03-09 06:04:24.490 ,4,0,0.,1.2,0.,1.2,0.,1.2,,0.0,,0.0
1979-03-09 06:04:25.690 ,4,0,0.,1.2,0.,1.2,0.,1.2,,0.0,,0.0
1979-03-09 06:04:26.890 ,4,0,0.,1.2,0.,1.2,0.,1.2,,0.0,,0.0
1979-03-09 06:04:28.090 ,4,0,0.,1.2,0.,1.2,0.,1.2,,0.0,,0.0
1979-03-09 06:04:29.290 ,4,0,0.,1.2,0.,1.2,0.,1.2,,0.0,,0.0
1979-03-09 06:04:30.490 ,4,0,0.,1.2,0.,1.2,0.,1.2,,0.0,,0.0
1979-03-09 06:04:31.690 ,4,0,0.,1.2,0.,1.2,0.,1.2,,0.0,,0.0
1979-03-09 06:04:32.890 ,4,0,0.,1.2,0.,1.2,0.,1.2,,0.0,,0.0
1979-03-09 06:04:34.090 ,4,0,0.,1.2,0.,1.2,0.,1.2,,0.0,,0.0
1979-03-09 06:04:35.290 ,4,0,0.,1.2,0.,1.2,0.,1.2,,0.0,,0.0
1979-03-09 06:04:36.490 ,4,0,0.,1.2,0.,1.2,0.,1.2,,0.0,,0.0
1979-03-09 06:04:37.690 ,4,0,0.,1.2,0.,1.2,0.,1.2,,0.0,,0.0
1979-03-09 06:04:38.890 ,4,0,0.,1.2,0.,1.2,0.,1.2,,0.0,,0.0
1979-03-09 06:04:40.090 ,4,0,0.,1.2,0.,1.2,0.,1.2,,0.0,,0.0
1979-03-09 06:04:41.290 ,4,0,0.,1.2,0.,1.2,0.,1.2,,0.0,,0.0
1979-03-09 06:04:42.490 ,4,0,0.,1.2,0.,1.2,0.,1.2,,0.0,,0.0
1979-03-09 06:04:43.690 ,4,0,0.,1.2,0.,1.2,0.,1.2,,0.0,,0.0
1979-03-09 06:04:44.890 ,5,0,0.,1.2,0.,1.2,0.,1.2,,0.0,,0.0
1979-03-09 06:04:46.090 ,5,0,0.,1.2,0.,1.2,0.,1.2,,0.0,,0.0
1979-03-09 06:04:47.290 ,5,0,0.,1.2,0.,1.2,0.,1.2,,0.0,,0.0
1979-03-09 06:04:48.490 ,5,0,0.,1.2,0.,1.2,0.,1.2,,0.0,,0.0
1979-03-09 06:04:49.690 ,5,0,0.,1.2,0.,1.2,0.,1.2,,0.0,,0.0
1979-03-09 06:04:50.890 ,5,0,0.,1.2,0.,1.2,0.,1.2,,0.0,,0.0
1979-03-09 06:04:52.090 ,5,0,0.,1.2,0.,1.2,0.,1.2,,0.0,,0.0
1979-03-09 06:04:53.290 ,5,0,0.,1.2,0.,1.2,0.,1.2,,0.0,,0.0
1979-03-09 06:04:54.490 ,5,0,0.,1.2,0.,1.2,0.,1.2,,0.0,,0.0
1979-03-09 06:04:55.690 ,5,0,0.,1.2,0.,1.2,0.,1.2,,0.0,,0.0
1979-03-09 06:04:56.890 ,5,0,0.,1.2,0.,1.2,0.,1.2,,0.0,,0.0
1979-03-09 06:04:58.090 ,5,0,0.,1.2,0.,1.2,0.,1.2,,0.0,,0.0
1979-03-09 06:04:59.290 ,5,0,0.,1.2,0.,1.2,0.,1.2,,0.0,,0.0
1979-03-09 06:05:00.490 ,5,0,0.,1.2,0.,1.2,0.,1.2,,0.0,,0.0
1979-03-09 06:05:01.690 ,5,0,0.,1.2,0.,1.2,0.,1.2,,0.0,,0.0
1979-03-09 06:05:02.890 ,5,0,0.,1.2,0.,1.2,0.,1.2,,0.0,,0.0
1979-03-09 06:05:04.090 ,5,0,0.,1.2,0.,1.2,0.,1.2,,0.0,,0.0
1979-03-09 06:05:05.290 ,5,0,0.,1.2,0.,1.2,0.,1.2,,0.0,,0.0
1979-03-09 06:05:06.490 ,5,0,0.,1.2,0.,1.2,0.,1.2,,0.0,,0.0
1979-03-09 06:05:07.690 ,5,0,0.,1.2,0.,1.2,0.,1.2,,0.0,,0.0
1979-03-09 06:05:08.890 ,6,0,0.,1.2,0.,1.2,0.,1.2,,0.0,,0.0
1979-03-09 06:05:10.090 ,6,0,0.,1.2,0.,1.2,0.,1.2,,0.0,,0.0
1979-03-09 06:05:11.290 ,6,0,0.,1.2,0.,1.2,0.,1.2,,0.0,,0.0
1979-03-09 06:05:12.490 ,6,0,0.,1.2,0.,1.2,0.,1.2,,0.0,,0.0
1979-03-09 06:05:13.690 ,6,0,0.,1.2,0.,1.2,0.,1.2,,0.0,,0.0
1979-03-09 06:05:14.890 ,6,0,0.,1.2,0.,1.2,0.,1.2,,0.0,,0.0
1979-03-09 06:05:16.090 ,6,0,0.,1.2,0.,1.2,0.,1.2,,0.0,,0.0
1979-03-09 06:05:17.290 ,6,0,0.,1.2,0.,1.2,0.,1.2,,0.0,,0.0
1979-03-09 06:05:18.490 ,6,0,0.,1.2,0.,1.2,0.,1.2,,0.0,,0.0
1979-03-09 06:05:19.690 ,6,0,0.,1.2,0.,1.2,0.,1.2,,0.0,,0.0
1979-03-09 06:05:20.890 ,6,0,0.,1.2,0.,1.2,0.,1.2,,0.0,,0.0
1979-03-09 06:05:22.090 ,6,0,0.,1.2,0.,1.2,0.,1.2,,0.0,,0.0
1979-03-09 06:05:23.290 ,6,0,0.,1.2,0.,1.2,0.,1.2,,0.0,,0.0
1979-03-09 06:05:24.490 ,6,0,0.,1.2,0.,1.2,0.,1.2,,0.0,,0.0
1979-03-09 06:05:25.690 ,6,0,0.,1.2,0.,1.2,0.,1.2,,0.0,,0.0
1979-03-09 06:05:26.890 ,6,0,0.,1.2,0.,1.2,0.,1.2,,0.0,,0.0
1979-03-09 06:05:28.090 ,6,0,0.,1.2,0.,1.2,0.,1.2,,0.0,,0.0
1979-03-09 06:05:29.290 ,6,0,0.,1.2,0.,1.2,0.,1.2,,0.0,,0.0
1979-03-09 06:05:30.490 ,6,0,0.,1.2,0.,1.2,0.,1.2,,0.0,,0.0
1979-03-09 06:05:31.690 ,6,0,0.,1.2,0.,1.2,0.,1.2,,0.0,,0.0
1979-03-09 06:05:32.890 ,7,0,0.,1.2,0.,1.2,0.,1.2,,0.0,,0.0
1979-03-09 06:05:34.090 ,7,0,0.,1.2,0.,1.2,0.,1.2,,0.0,,0.0
1979-03-09 06:05:35.290 ,7,0,0.,1.2,0.,1.2,0.,1.2,,0.0,,0.0
1979-03-09 06:05:36.490 ,7,0,0.,1.2,0.,1.2,0.,1.2,,0.0,,0.0
1979-03-09 06:05:37.690 ,7,0,0.,1.2,0.,1.2,0.,1.2,,0.0,,0.0
1979-03-09 06:05:38.890 ,7,0,0.,1.2,0.,1.2,0.,1.2,,0.0,,0.0
1979-03-09 06:05:40.090 ,7,0,0.,1.2,0.,1.2,0.,1.2,,0.0,,0.0
1979-03-09 06:05:41.290 ,7,0,0.,1.2,0.,1.2,0.,1.2,,0.0,,0.0
1979-03-09 06:05:42.490 ,7,0,0.,1.2,0.,1.2,0.,1.2,,0.0,,0.0
1979-03-09 06:05:43.690 ,7,0,0.,1.2,0.,1.2,0.,1.2,,0.0,,0.0
1979-03-09 06:05:44.890 ,7,0,0.,1.2,0.,1.2,0.,1.2,,0.0,,0.0
1979-03-09 06:05:46.090 ,7,0,0.,1.2,0.,1.2,0.,1.2,,0.0,,0.0
1979-03-09 06:05:47.290 ,7,0,0.,1.2,0.,1.2,0.,1.2,,0.0,,0.0
1979-03-09 06:05:48.490 ,7,0,0.,1.2,0.,1.2,0.,1.2,,0.0,,0.0
1979-03-09 06:05:49.690 ,7,0,0.,1.2,0.,1.2,0.,1.2,,0.0,,0.0
1979-03-09 06:05:50.890 ,7,0,0.,1.2,0.,1.2,0.,1.2,,0.0,,0.0
1979-03-09 06:05:52.090 ,7,0,0.,1.2,0.,1.2,0.,1.2,,0.0,,0.0
1979-03-09 06:05:53.290 ,7,0,0.,1.2,0.,1.2,0.,1.2,,0.0,,0.0
1979-03-09 06:05:54.490 ,7,0,0.,1.2,0.,1.2,0.,1.2,,0.0,,0.0
1979-03-09 06:05:55.690 ,7,0,0.,1.2,0.,1.2,0.,1.2,,0.0,,0.0
1979-03-09 06:05:56.890 ,7,0,0.,1.2,0.,1.2,0.,1.2,,0.0,,0.0
1979-03-09 06:05:58.090 ,7,0,0.,1.2,0.,1.2,0.,1.2,,0.0,,0.0
1979-03-09 06:05:59.290 ,7,0,0.,1.2,0.,1.2,0.,1.2,,0.0,,0.0
1979-03-09 06:06:00.490 ,7,0,0.,1.2,0.,1.2,0.,1.2,,0.0,,0.0
1979-03-09 06:06:01.690 ,7,0,0.,1.2,0.,1.2,0.,1.2,,0.0,,0.0
1979-03-09 06:06:02.890 ,7,0,0.,1.2,0.,1.2,0.,1.2,,0.0,,0.0
1979-03-09 06:06:04.090 ,7,0,0.,1.2,0.,1.2,0.,1.2,,0.0,,0.0
1979-03-09 06:06:05.290 ,7,0,0.,1.2,0.,1.2,0.,1.2,,0.0,,0.0
1979-03-09 06:06:06.490 ,7,0,0.,1.2,0.,1.2,0.,1.2,,0.0,,0.0
1979-03-09 06:06:07.690 ,7,0,0.,1.2,0.,1.2,0.,1.2,,0.0,,0.0
1979-03-09 06:06:08.890 ,7,0,0.,1.2,0.,1.2,0.,1.2,,0.0,,0.0
1979-03-09 06:06:10.090 ,7,0,0.,1.2,0.,1.2,0.,1.2,,0.0,,0.0
1979-03-09 06:06:11.290 ,7,0,0.,1.2,0.,1.2,0.,1.2,,0.0,,0.0
1979-03-09 06:06:12.490 ,7,0,0.,1.2,0.,1.2,0.,1.2,,0.0,,0.0
1979-03-09 06:06:13.690 ,7,0,0.,1.2,0.,1.2,0.,1.2,,0.0,,0.0
1979-03-09 06:06:14.890 ,7,0,0.,1.2,0.,1.2,0.,1.2,,0.0,,0.0
1979-03-09 06:06:16.090 ,7,0,0.,1.2,0.,1.2,0.,1.2,,0.0,,0.0
1979-03-09 06:06:17.290 ,7,0,0.,1.2,0.,1.2,0.,1.2,,0.0,,0.0
1979-03-09 06:06:18.490 ,7,0,0.,1.2,0.,1.2,0.,1.2,,0.0,,0.0
1979-03-09 06:06:19.690 ,7,0,0.,1.2,0.,1.2,0.,1.2,,0.0,,0.0
1979-03-09 06:06:20.890 ,6,0,0.,1.2,0.,1.2,0.,1.2,,0.0,,0.0
1979-03-09 06:06:22.090 ,6,0,0.,1.2,0.,1.2,0.,1.2,,0.0,,0.0
1979-03-09 06:06:23.290 ,6,0,0.,1.2,0.,1.2,0.,1.2,,0.0,,0.0
1979-03-09 06:06:24.490 ,6,0,0.,1.2,0.,1.2,0.,1.2,,0.0,,0.0
1979-03-09 06:06:25.690 ,6,0,0.,1.2,0.,1.2,0.,1.2,,0.0,,0.0
1979-03-09 06:06:26.890 ,6,0,0.,1.2,0.,1.2,0.,1.2,,0.0,,0.0
1979-03-09 06:06:28.090 ,6,0,0.,1.2,0.,1.2,0.,1.2,,0.0,,0.0
1979-03-09 06:06:29.290 ,6,0,0.,1.2,0.,1.2,0.,1.2,,0.0,,0.0
1979-03-09 06:06:30.490 ,6,0,0.,1.2,0.,1.2,0.,1.2,,0.0,,0.0
1979-03-09 06:06:31.690 ,6,0,0.,1.2,0.,1.2,0.,1.2,,0.0,,0.0
1979-03-09 06:06:32.890 ,6,0,0.,1.2,0.,1.2,0.,1.2,,0.0,,0.0
1979-03-09 06:06:34.090 ,6,0,0.,1.2,0.,1.2,0.,1.2,,0.0,,0.0
1979-03-09 06:06:35.290 ,6,0,0.,1.2,0.,1.2,0.,1.2,,0.0,,0.0
1979-03-09 06:06:36.490 ,6,0,0.,1.2,0.,1.2,0.,1.2,,0.0,,0.0
1979-03-09 06:06:37.690 ,6,0,0.,1.2,0.,1.2,0.,1.2,,0.0,,0.0
1979-03-09 06:06:38.890 ,6,0,0.,1.2,0.,1.2,0.,1.2,,0.0,,0.0
1979-03-09 06:06:40.090 ,6,0,0.,1.2,0.,1.2,0.,1.2,,0.0,,0.0
1979-03-09 06:06:41.290 ,6,0,0.,1.2,0.,1.2,0.,1.2,,0.0,,0.0
1979-03-09 06:06:42.490 ,6,0,0.,1.2,0.,1.2,0.,1.2,,0.0,,0.0
1979-03-09 06:06:43.690 ,6,0,0.,1.2,0.,1.2,0.,1.2,,0.0,,0.0
1979-03-09 06:06:44.890 ,5,0,0.,1.2,0.,1.2,0.,1.2,,0.0,,0.0
1979-03-09 06:06:46.090 ,5,0,0.,1.2,0.,1.2,0.,1.2,,0.0,,0.0
1979-03-09 06:06:47.290 ,5,0,0.,1.2,0.,1.2,0.,1.2,,0.0,,0.0
1979-03-09 06:06:48.490 ,5,0,0.,1.2,0.,1.2,0.,1.2,,0.0,,0.0
1979-03-09 06:06:49.690 ,5,0,0.,1.2,0.,1.2,0.,1.2,,0.0,,0.0
1979-03-09 06:06:50.890 ,5,0,0.,1.2,0.,1.2,0.,1.2,,0.0,,0.0
1979-03-09 06:06:52.090 ,5,0,0.,1.2,0.,1.2,0.,1.2,,0.0,,0.0
1979-03-09 06:06:53.290 ,5,0,0.,1.2,0.,1.2,0.,1.2,,0.0,,0.0
1979-03-09 06:06:54.490 ,5,0,0.,1.2,0.,1.2,0.,1.2,,0.0,,0.0
1979-03-09 06:06:55.690 ,5,0,0.,1.2,0.,1.2,0.,1.2,,0.0,,0.0
1979-03-09 06:06:56.890 ,5,0,0.,1.2,0.,1.2,0.,1.2,,0.0,,0.0
1979-03-09 06:06:58.090 ,5,0,0.,1.2,0.,1.2,0.,1.2,,0.0,,0.0
1979-03-09 06:06:59.290 ,5,0,0.,1.2,0.,1.2,0.,1.2,,0.0,,0.0
1979-03-09 06:07:00.490 ,5,0,0.,1.2,0.,1.2,0.,1.2,,0.0,,0.0
1979-03-09 06:07:01.690 ,5,0,0.,1.2,0.,1.2,0.,1.2,,0.0,,0.0
1979-03-09 06:07:02.890 ,5,0,0.,1.2,0.,1.2,0.,1.2,,0.0,,0.0
1979-03-09 06:07:04.090 ,5,0,0.,1.2,0.,1.2,0.,1.2,,0.0,,0.0
1979-03-09 06:07:05.290 ,5,0,0.,1.2,0.,1.2,0.,1.2,,0.0,,0.0
1979-03-09 06:07:06.490 ,5,0,0.,1.2,0.,1.2,0.,1.2,,0.0,,0.0
1979-03-09 06:07:07.690 ,5,0,0.,1.2,0.,1.2,0.,1.2,,0.0,,0.0
1979-03-09 06:07:08.900 ,4,0,0.,1.2,0.,1.2,0.,1.2,,0.0,,0.0
1979-03-09 06:07:10.100 ,4,0,0.,1.2,0.,1.2,0.,1.2,,0.0,,0.0
1979-03-09 06:07:11.300 ,4,0,0.,1.2,0.,1.2,0.,1.2,,0.0,,0.0
1979-03-09 06:07:12.500 ,4,0,0.,1.2,0.,1.2,0.,1.2,,0.0,,0.0
1979-03-09 06:07:13.700 ,4,0,0.,1.2,0.,1.2,0.,1.2,,0.0,,0.0
1979-03-09 06:07:14.900 ,4,0,0.,1.2,0.,1.2,0.,1.2,,0.0,,0.0
1979-03-09 06:07:16.100 ,4,0,0.,1.2,0.,1.2,0.,1.2,,0.0,,0.0
1979-03-09 06:07:17.300 ,4,0,0.,1.2,0.,1.2,0.,1.2,,0.0,,0.0
1979-03-09 06:07:18.500 ,4,0,0.,1.2,0.,1.2,0.,1.2,,0.0,,0.0
1979-03-09 06:07:19.700 ,4,0,0.,1.2,0.,1.2,0.,1.2,,0.0,,0.0
1979-03-09 06:07:20.900 ,4,0,0.,1.2,0.,1.2,0.,1.2,,0.0,,0.0
1979-03-09 06:07:22.100 ,4,0,0.,1.2,0.,1.2,0.,1.2,,0.0,,0.0
1979-03-09 06:07:23.300 ,4,0,0.,1.2,0.,1.2,0.,1.2,,0.0,,0.0
1979-03-09 06:07:24.500 ,4,0,0.,1.2,0.,1.2,0.,1.2,,0.0,,0.0
1979-03-09 06:07:25.700 ,4,0,0.,1.2,0.,1.2,0.,1.2,,0.0,,0.0
1979-03-09 06:07:26.900 ,4,0,0.,1.2,0.,1.2,0.,1.2,,0.0,,0.0
1979-03-09 06:07:28.100 ,4,0,0.,1.2,0.,1.2,0.,1.2,,0.0,,0.0
1979-03-09 06:07:29.300 ,4,0,0.,1.2,0.,1.2,0.,1.2,,0.0,,0.0
1979-03-09 06:07:30.500 ,4,0,0.,1.2,0.,1.2,0.,1.2,,0.0,,0.0
1979-03-09 06:07:31.700 ,4,0,0.,1.2,0.,1.2,0.,1.2,,0.0,,0.0
1979-03-09 06:07:32.900 ,3,0,0.,1.2,0.,1.2,0.,1.2,,0.0,,0.0
1979-03-09 06:07:34.100 ,3,0,0.,1.2,0.,1.2,0.,1.2,,0.0,,0.0
1979-03-09 06:07:35.300 ,3,0,0.,1.2,0.,1.2,0.,1.2,,0.0,,0.0
1979-03-09 06:07:36.500 ,3,0,0.,1.2,0.,1.2,0.,1.2,,0.0,,0.0
1979-03-09 06:07:37.700 ,3,0,0.,1.2,0.,1.2,0.,1.2,,0.0,,0.0
1979-03-09 06:07:38.900 ,3,0,0.,1.2,0.,1.2,0.,1.2,,0.0,,0.0
1979-03-09 06:07:40.100 ,3,0,0.,1.2,0.,1.2,0.,1.2,,0.0,,0.0
1979-03-09 06:07:41.300 ,3,0,0.,1.2,0.,1.2,0.,1.2,,0.0,,0.0
1979-03-09 06:07:42.500 ,3,0,0.,1.2,0.,1.2,0.,1.2,,0.0,,0.0
1979-03-09 06:07:43.700 ,3,0,0.,1.2,0.,1.2,0.,1.2,,0.0,,0.0
1979-03-09 06:07:44.900 ,3,0,0.,1.2,0.,1.2,0.,1.2,,0.0,,0.0
1979-03-09 06:07:46.100 ,3,0,0.,1.2,0.,1.2,0.,1.2,,0.0,,0.0
1979-03-09 06:07:47.300 ,3,0,0.,1.2,0.,1.2,0.,1.2,,0.0,,0.0
1979-03-09 06:07:48.500 ,3,0,0.,1.2,0.,1.2,0.,1.2,,0.0,,0.0
1979-03-09 06:07:49.700 ,3,0,0.,1.2,0.,1.2,0.,1.2,,0.0,,0.0
1979-03-09 06:07:50.900 ,3,0,0.,1.2,0.,1.2,0.,1.2,,0.0,,0.0
1979-03-09 06:07:52.100 ,3,0,0.,1.2,0.,1.2,0.,1.2,,0.0,,0.0
1979-03-09 06:07:53.300 ,3,0,0.,1.2,0.,1.2,0.,1.2,,0.0,,0.0
1979-03-09 06:07:54.500 ,3,0,0.,1.2,0.,1.2,0.,1.2,,0.0,,0.0
1979-03-09 06:07:55.700 ,3,0,0.,1.2,0.,1.2,0.,1.2,,0.0,,0.0
1979-03-09 06:07:56.900 ,2,0,0.,1.2,0.,1.2,0.,1.2,,0.0,,0.0
1979-03-09 06:07:58.100 ,2,0,0.,1.2,0.,1.2,0.,1.2,,0.0,,0.0
1979-03-09 06:07:59.300 ,2,0,0.,1.2,0.,1.2,0.,1.2,,0.0,,0.0
1979-03-09 06:08:00.500 ,2,0,0.,1.2,0.,1.2,0.,1.2,,0.0,,0.0
1979-03-09 06:08:01.700 ,2,0,0.,1.2,0.,1.2,0.,1.2,,0.0,,0.0
1979-03-09 06:08:02.900 ,2,0,0.,1.2,0.,1.2,0.,1.2,,0.0,,0.0
1979-03-09 06:08:04.100 ,2,0,0.,1.2,0.,1.2,0.,1.2,,0.0,,0.0
1979-03-09 06:08:05.300 ,2,0,0.,1.2,0.,1.2,0.,1.2,,0.0,,0.0
1979-03-09 06:08:06.500 ,2,0,0.,1.2,0.,1.2,0.,1.2,,0.0,,0.0
1979-03-09 06:08:07.700 ,2,0,0.,1.2,0.,1.2,0.,1.2,,0.0,,0.0
1979-03-09 06:08:08.900 ,2,0,0.,1.2,0.,1.2,0.,1.2,,0.0,,0.0
1979-03-09 06:08:10.100 ,2,0,0.,1.2,0.,1.2,0.,1.2,,0.0,,0.0